Fecha, hora, temperatura, viento dirección y velocidad, humedad y presión.

  • 16-01-2019 16:00:00 | 7.80°C | Sudeste |5.00 km/h | 28.00% | 826.40 hPa
  • 16-01-2019 15:00:00 | 8.60°C | Sudeste |7.00 km/h | 28.00% | 826.50 hPa
  • 16-01-2019 14:00:00 | 9.10°C | Este |6.00 km/h | 20.00% | 827.00 hPa
  • 16-01-2019 13:00:00 | 6.50°C | Sudeste |5.00 km/h | 29.00% | 827.60 hPa
  • 16-01-2019 12:00:00 | 5.80°C | Sudeste |5.00 km/h | 30.00% | 828.40 hPa
  • 16-01-2019 11:00:00 | 4.90°C | Sudeste |6.00 km/h | 30.00% | 828.60 hPa
  • 16-01-2019 10:00:00 | 1.10°C | Sudeste |4.00 km/h | 34.00% | 828.70 hPa
  • 16-01-2019 09:00:00 | 1.10°C | Este |6.00 km/h | 32.00% | 828.40 hPa
  • 16-01-2019 08:00:00 | 0.80°C | Este |5.00 km/h | 34.00% | 828.30 hPa
  • 16-01-2019 07:00:00 | 0.30°C | Este |5.00 km/h | 40.00% | 828.30 hPa
  • 16-01-2019 06:00:00 | -1.00°C | Sudeste |6.00 km/h | 61.00% | 828.50 hPa
  • 16-01-2019 05:00:00 | -0.20°C | Sudeste |5.00 km/h | 50.00% | 828.90 hPa
  • 16-01-2019 04:00:00 | 0.00°C | Sudeste |8.00 km/h | 42.00% | 829.60 hPa
  • 16-01-2019 03:00:00 | -0.10°C | Sudeste |6.00 km/h | 42.00% | 829.90 hPa
  • 16-01-2019 02:00:00 | 0.10°C | Sudeste |6.00 km/h | 55.00% | 830.00 hPa
  • 16-01-2019 01:00:00 | -0.40°C | Sudeste |7.00 km/h | 38.00% | 830.30 hPa
  • 16-01-2019 00:00:00 | 0.00°C | Sudeste |9.00 km/h | 38.00% | 830.80 hPa
  • 15-01-2019 23:00:00 | 0.60°C | Sudeste |9.00 km/h | 37.00% | 831.00 hPa
  • 15-01-2019 22:00:00 | 1.00°C | Sudeste |9.00 km/h | 37.00% | 831.10 hPa
  • 15-01-2019 21:00:00 | 1.10°C | Sudeste |9.00 km/h | 37.00% | 831.00 hPa
  • 15-01-2019 20:00:00 | 1.40°C | Sudeste |9.00 km/h | 35.00% | 831.10 hPa
  • 15-01-2019 19:00:00 | 2.10°C | Sudeste |6.00 km/h | 34.00% | 831.00 hPa
  • 15-01-2019 18:00:00 | 2.80°C | Sudeste |8.00 km/h | 30.00% | 830.90 hPa
  • 15-01-2019 17:00:00 | 4.40°C | Este |3.00 km/h | 30.00% | 830.90 hPa
    • diseño web asturias Información sobre el estado de las mareas, altura de la marejada, temperatura del agua y otros datos de Gijón en Asturias.

      Surf Gijón